Regional Weather Roundup
Issued by NWS

Home | Current Version | Previous Version | Graphics & Text | Print | Product List | Glossary On
Versions: 1 2 3 4 5 6 7 8 9 10 11 12 13 14 15 16 17 18 19 20 21 22 23 24 25 26 27 28 29 30 31 32 33 34 35 36 37 38 39 40 41 42 43 44 45 46 47 48 49 50
211
ASUS44 KLIX 011510
RWRLA
LOUISIANA WEATHER ROUNDUP
NATIONAL WEATHER SERVICE NEW ORLEANS LA
1000 AM CDT WED OCT 01 2014

NOTE: "FAIR" INDICATES FEW OR NO CLOUDS BELOW 12,000 FEET WITH NO
      SIGNIFICANT WEATHER AND/OR OBSTRUCTIONS TO VISIBILITY.
      SKY/WX - SKY CONDITION AND SIGNIFICANT WEATHER.
      TMP - AIR TEMPERATURE.    DP   - DEWPOINT TEMPERATURE.
      RH  - RELATIVE HUMIDITY.  PRES - PRESSURE.
      HX  - HEAT INDEX.         WCI  - WIND CHILL INDEX.

*  THESE STATIONS ARE NOT NWS OR FAA STATIONS AND ARE NOT UNDER
   NWS QUALITY CONTROL.

LAZ040-048-061>063-065-066-069-011600-
SOUTHEAST LOUISIANA

CITY           SKY/WX    TMP DP  RH WIND       PRES   REMARKS
N.O. AUDUBON     N/A     82  75  81 MISG        N/A
N.O. INTL ARPT CLOUDY    81  72  74 SE7       29.94R
N.O. LAKEFRONT PTSUNNY   81  72  74 SE10      29.95R
N.O. DOWNTOWN* FAIR      81  70  69 SE10      29.95R
SLIDELL        MOSUNNY   81  72  74 SE7       29.95R
BATON ROUGE    CLOUDY    77  73  87 E8        29.93S
BOOTHVILLE     CLOUDY    81  74  79 SE7       29.96R
BELLE CHASSE   CLOUDY    81  72  74 SE8       29.95R
BOGALUSA*      FAIR      80  71  74 SE5       29.97R
GALLIANO*      NOT AVBL
NEW ROADS*     CLOUDY    77  74  89 E5        29.93R
GONZALES*      PTSUNNY   78  78 100 CALM      29.94R
HAMMOND*       PTSUNNY   82  72  69 SE7       29.96R
HOUMA*         DRIZZLE  N/A N/A N/A CALM      29.94R
PORT FOURCHON* MOSUNNY   77  73  88 SE8G15    29.97R

$$

LAZ041-044-053-054-011600-
SOUTHWEST LOUISIANA

CITY           SKY/WX    TMP DP  RH WIND       PRES   REMARKS
LAKE CHARLES   PTSUNNY   81  76  84 E13       29.88R
LAFAYETTE      CLOUDY    76  75  97 SE3       29.92R
PATTERSON      CLOUDY    75  75 100 S6        29.96R
SALT POINT       N/A     80  76  87 VRB6      29.92R
NEW IBERIA     RAIN      77  76  96 S5        29.94R FOG
CHENAULT AIRPK PTSUNNY   79  75  89 E8        29.89R

$$

LAZ027-028-011600-
CENTRAL LOUISIANA

CITY           SKY/WX    TMP DP  RH WIND       PRES   REMARKS
FORT POLK      CLOUDY    77  73  88 SE10      29.90R
ALEXANDRIA INT CLOUDY    78  73  84 SE9       29.90R
ALEXANDRIA     CLOUDY    78  73  84 SE9       29.92R

$$

LAZ001-002-011600-
NORTHWEST LOUISIANA

CITY           SKY/WX    TMP DP  RH WIND       PRES   REMARKS
SHREVEPORT     CLOUDY    76  73  91 SE7       29.88R FOG
BARKSDALE AFB  CLOUDY    76  72  87 S10       29.89R
DTN SHREVEPORT CLOUDY    76  71  85 S10       29.88R HAZE

$$

LAZ014-016-011600-
NORTHEAST LOUISIANA

CITY           SKY/WX    TMP DP  RH WIND       PRES   REMARKS
MONROE         CLOUDY    81  74  79 VRB6      29.92S
TALLULAH       SUNNY     79  70  74 S9        29.94R

$$




USA.gov is the U.S. government's official web portal to all federal, state and local government web resources and services.